Location: Pulvis Stellarum Observatory
(41.6962°N, 71.4263°W)
Time: 03:45:20
(UTC-04:00)

Cosmos 1758 - Visible Passes

Search period start: 27 July 2016 00:00
Search period end: 06 August 2016 00:00
Orbit: 541 x 567 km, 82.5° (Epoch: 26 July)

Date Brightness Start Highest point End Pass type
(mag) Time Alt. Az. Time Alt. Az. Time Alt. Az.
27 Jul 3.7 03:49:05 20° S 03:51:45 62° E 03:55:44 10° NNE visible
28 Jul 3.5 03:46:33 25° S 03:48:47 72° E 03:52:47 10° NNE visible
29 Jul 3.3 03:44:00 32° S 03:45:48 82° E 03:49:50 10° N visible
30 Jul 3.2 03:41:25 39° S 03:42:50 87° W 03:46:52 10° N visible
31 Jul 3.2 03:38:48 47° SSW 03:39:52 76° W 03:43:53 10° N visible
01 Aug 3.3 03:36:11 53° SW 03:36:54 66° W 03:40:53 10° N visible
02 Aug 6.2 01:57:58 10° E 01:57:59 10° E 01:58:01 10° E visible
02 Aug 3.4 03:33:32 54° WSW 03:33:56 57° W 03:37:54 10° N visible
03 Aug 6.1 01:55:03 11° E 01:55:03 11° E 01:56:19 10° ENE visible
03 Aug 3.6 03:30:52 49° W 03:30:59 49° W 03:34:52 10° N visible
04 Aug 6.0 01:52:21 13° ENE 01:52:21 13° ENE 01:53:49 10° ENE visible
04 Aug 3.8 03:28:10 43° WNW 03:28:10 43° WNW 03:31:51 10° N visible
05 Aug 5.9 01:49:39 14° ENE 01:49:39 14° ENE 01:51:11 10° NE visible
05 Aug 4.2 03:25:28 36° WNW 03:25:28 36° WNW 03:28:49 10° N visible
